Location: LDNL
(36.4545°S, 141.6685°E)
Time: 02:21:59
(UTC+10:00)

Courier 1B Rocket - Pass Details

Date: 27 May 2024
Orbit: 920 x 1201 km, 28.3° (Epoch: 14 June)

Event Time Altitude Azimuth Distance (km) Brightness Sun altitude
Exits shadow 06:53:22 - 278° (W) 3,635 7.4 -8.1°
Reaches altitude 10° 06:55:16 10° 286° (WNW) 3,125 7.2 -7.8°
Maximum altitude 07:01:18 25° 337° (NNW) 2,227 6.9 -6.6°
Drops below altitude 10° 07:07:20 10° 28° (NNE) 3,115 8.5 -5.5°
Sets 07:10:43 0° 40° (NE) 4,053 9.5 -4.9°
